Regional Weather Roundup
Issued by NWS Goodland, KS

Home | Current Version | Previous Version | Graphics & Text | Print | Product List | Glossary On
Versions: 1 2 3 4 5 6 7 8 9 10 11 12 13 14 15 16 17 18 19 20 21 22 23 24 25 26 27 28 29 30 31 32 33 34 35 36 37 38 39 40 41 42 43 44 45 46 47 48 49 50
000
ASUS43 KGLD 250559
RWRGLD

GOODLAND FORECAST AREA HOURLY WEATHER ROUNDUP
NATIONAL WEATHER SERVICE GOODLAND KS
1200 AM MDT MON SEP 25 2017

...OFFICIAL OBSERVATIONS...

CITY           SKY/WX    TMP DP  RH WIND       PRES   REMARKS
GOODLAND KS    RAIN      53  52  96 NW13      29.99R
HILL CITY KS   LGT RAIN  58  57  97 NE9       29.93R
IMPERIAL NEB   LGT RAIN  51  49  92 N10       30.06R
MCCOOK NEB     LGT RAIN  54  53  97 NE16      29.95F
AKRON CO       LGT RAIN  48  46  93 N6        30.05S FOG
BURLINGTON CO  CLOUDY    51  51 100 N9        29.99F
LIMON CO         N/A    N/A N/A N/A MISG        N/A
$$

...UNOFFICIAL OBSERVATIONS...

CITY           SKY/WX    TMP DP  RH WIND       PRES   REMARKS
LENORA KS        N/A     57  32  39 MISG        N/A
NORTON KS      DRIZZLE   55  52  88 NE15      29.92S
SHARON SPRINGS   N/A     54  53  97 CALM        N/A
KIT CARSON CO    N/A     52  49  90 MISG        N/A
YUMA CO        CLOUDY    46  46 100 N7        30.02F
$$




USA.gov is the U.S. government's official web portal to all federal, state and local government web resources and services.